Regional Weather Roundup
Issued by NWS Charleston, SC

Home | Current Version | Previous Version | Text Only | Print | Product List | Glossary On
Versions: 1 2 3 4 5 6 7 8 9 10 11 12 13 14 15 16 17 18 19 20 21 22 23 24 25 26 27 28 29 30 31 32 33 34 35 36 37 38 39 40 41 42 43 44 45 46 47 48 49 50
000
ASUS42 KCHS 180212
RWRCHS

REGIONAL WEATHER ROUNDUP
NATIONAL WEATHER SERVICE CHARLESTON SC
900 PM EST TUE JAN 17 2017

NOTE: "FAIR" INDICATES FEW OR NO CLOUDS BELOW 12,000 FEET WITH NO
SIGNIFICANT WEATHER AND/OR OBSTRUCTIONS TO VISIBILITY.

NOT ALL STATIONS ARE QUALITY CONTROLLED. USE DATA WITH CAUTION...
ESPECIALLY DEWPOINT OBSERVATIONS.

SCZ027-030-031-034>040-042>050-180300-
...SOUTHEAST SOUTH CAROLINA...

CITY           SKY/WX    TMP DP  RH WIND       PRES   REMARKS
N CHARLESTON   CLOUDY    62  59  90 SW10      30.20R
WATERFRONT PRK   N/A     62  61  96 VRB3      30.19F
MOUNT PLEASANT FAIR      63  61  94 SW7       30.20R
JOHNS ISLAND   FAIR      63  61  94 SW7       30.21R
PINOPOLIS        N/A     66  61  82 VRB3      30.10R
MONCKS CORNER  FAIR      61  57  88 SW6       30.18S
SUMMERVILLE    FAIR      63  63 100 S3        30.20S
BEAUFORT MCAS  CLOUDY    62  58  86 S7        30.20S
BEAUFORT ARPT  FAIR      61  59  94 S5        30.20S
HILTON HEAD IS PTCLDY    61  61 100 S7        30.21F
WALTERBORO     MOCLDY    64 N/A N/A CALM      30.20S
ALLENDALE      FAIR      64  57  77 CALM      30.17S

...SOUTHERN MIDLANDS AND PEE DEE...

CITY           SKY/WX    TMP DP  RH WIND       PRES   REMARKS
GEORGETOWN     FAIR      59  59 100 SW3       30.20R
KINGSTREE      FAIR      59  55  88 CALM      30.17S
ORANGEBURG     CLOUDY    62  57  83 S6        30.17S
BARNWELL       FAIR      68  59  73 S3        30.17F
AIKEN          FAIR      61  54  77 S7        30.19F
MANNING        FAIR      55  54  94 CALM      30.18S
COLUMBIA       PTCLDY    65  55  70 SW6       30.13F
SUMTER         MOCLDY    59  56  89 S8        30.12F
FLORENCE       PTCLDY    61  58  90 S8        30.14F
MYRTLE BEACH   CLEAR     61  55  82 SW12      30.19S
N MYRTLE BEACH PTCLDY    58  58 100 SW12      30.17S

$$

GAZ063-065-086>088-099>101-113>116-118-119-134>141-150-180300-
...SOUTHEAST GEORGIA...

CITY           SKY/WX    TMP DP  RH WIND       PRES   REMARKS
SAVANNAH ARPT  CLEAR     63  58  83 S9        30.21S
HUNTER AAF     CLEAR     62  61  97 S8        30.18F
FORT STEWART   PTCLDY    62  58  84 CALM      30.19R
STATESBORO     PTCLDY    59  59 100 CALM      30.20S
SYLVANIA       PTCLDY   N/A N/A N/A CALM      30.20S
CLAXTON        FAIR     N/A N/A N/A CALM      30.21R

...CSRA...CENTRAL AND FAR SOUTHEAST GEORGIA...

CITY           SKY/WX    TMP DP  RH WIND       PRES   REMARKS
THOMSON        CLEAR     66  59  78 CALM      30.21S
AUGUSTA-BUSH   PTCLDY    62  54  74 S7        30.15F
AUGUSTA-DANIEL PTCLDY    68  54  60 SW5       30.16F
SWAINSBORO     FAIR      64  57  77 CALM      30.20S
VIDALIA        CLEAR     63  61  94 CALM      30.20S
EASTMAN        FAIR      62  53  73 CALM      30.22S
HAZLEHURST     FAIR      65  62  87 SW5       30.20S
ALMA           CLEAR     58  58 100 CALM      30.21R
WAYCROSS       CLEAR     65  63  95 SW6       30.22S
JESUP          FAIR      61  55  82 CALM      30.22R
BAXLEY         FAIR      63  63 100 CALM      30.21S
BRUNSWICK      CLEAR     63  63 100 S3        30.23S
SAINT SIMONS   CLEAR     63  61  93 S6        30.22F

$$

SCZ027-028-034-036>038-045-046-048>050-GAZ119-141-180300-
...LAKE AND SUPPLEMENTAL COASTAL OBSERVATIONS...

STATION/POSITION TIME  TEMP    WIND        PRES    WAVE   SWELL
                       AIR SEA DIR/SP/G            HT/PER HT/PER/DIR
                 (UTC) (F)     (DEG/KT/KT) (MB)    (FT/S) (FT/S/D)
WINYAH BAY       0045   59     200/  4     1022.0
LAKE MURRAY      NOT AVBL
ACE BASIN NERRS  0045   59        CALM     1023.0
FORT PULASKI     0148   60 56  200/  3/  5 1023.1F
SAPELO ISLAND    0100   61     170/  5     1023.0

$$

ANZ835-935-AMZ111-154-330-350-352-354-370-450-454-472-180300-
...C-MAN AND BUOY OBSERVATIONS...

STATION/POSITION TIME  TEMP    WIND        PRES    WAVE   SWELL
                       AIR SEA DIR/SP/G            HT/PER HT/PER/DIR
                 (UTC) (F)     (DEG/KT/KT) (MB)    (FT/S) (FT/S/D)
BUOY 41004       0050   70 71  220/ 12/ 14 1022.5    2/ 8   2/130/ 8
BUOY 41008       0050   63 60  160/  8/  8 1023.3    2/ 8   2/ 90/ 8
FOLLY BEACH CMAN 0100   59     200/  5/  5 1022.9F
CAPERS NEARSHORE 0108   57 54  210/  8/ 10 1022.2F
FRIPP NEARSHORE  0108   60 57  200/  8/ 12 1022.4F


STATION/POSITION TIME  TEMP    WIND        PRES    WAVE   SWELL
                       AIR SEA DIR/SP/G            HT/PER HT/PER/DIR
                 (UTC) (F)     (DEG/KT/KT) (MB)    (FT/S) (FT/S/D)
5E ST. MARYS GA  0130      61                N/A     2/ 9
FRYING PAN BUOY  0110          210/ 14/ 17 1022.0
BUOY 41025       0050   70 73  230/ 17/ 21 1019.6    3/ 4   2/110/ 9
CAPE LOOKOUT NC  0100   64     220/ 11/ 14 1020.3F
BUOY 41002       0050   72 72  210/ 12/ 12 1024.1    3/ 8   2/130/ 8
BUOY 41010       NOT AVBL
ST AUGUSTINE FL  0100   67 65  180/  2/  3 1025.0R


$$




USA.gov is the U.S. government's official web portal to all federal, state and local government web resources and services.